Regional Weather Roundup
Issued by NWS Sterling, VA

Home | Current Version | Previous Version | Graphics & Text | Print | Product List | Glossary On
Versions: 1 2 3 4 5 6 7 8 9 10 11 12 13 14 15 16 17 18 19 20 21 22 23 24 25 26 27
000
ASUS41 KLWX 181811
RWRLWX

REGIONAL WEATHER ROUNDUP
NATIONAL WEATHER SERVICE BALTIMORE MD/WASHINGTON DC
200 PM EDT MON SEP 18 2017

Note: "FAIR" indicates few or no clouds below 12,000 feet
with no significant weather and/or obstructions to visibility.
 TC=TEMPERATURE CELSIUS

 * =Non NWS site. Station does not report precipitation (e.g. rain,
    snow, etc.), thunder, or fog.

DCZ001-MDZ009-015-VAZ040>042-051-053>054-181900-
WASHINGTON METRO

CITY           SKY/WX    TMP DP  RH WIND       PRES   REMARKS
WASHINGTON NAT CLOUDY    75  68  78 NE12      30.07F
DULLES         MOSUNNY   78  66  66 E8        30.07F
QUANTICO       CLOUDY    77  69  76 E9        30.06F
COLLEGE PARK*  CLOUDY    73  65  77 E3        30.07F
LEESBURG*      CLOUDY    79  70  73 E8        30.08F
MANASSAS*      PTSUNNY   80  66  62 N8        30.06F
GAITHERSBURG*  PTSUNNY   74  66  76 CALM      30.10F

$$

MDZ006>007-011-014-181900-
BALTIMORE METRO

CITY           SKY/WX    TMP DP  RH WIND       PRES   REMARKS
BWI AIRPORT    LGT RAIN  72  69  90 E6        30.08F FOG
MD SCIENCE CTR   N/A     74  69  85 MISG      30.08F
MARTIN STATE   CLOUDY    73  72  94 N5        30.09F
ANNAPOLIS      CLOUDY    73  72  96 N8        30.07F
FORT MEADE*    CLOUDY    72  64  78 NE5       30.10F

$$

MDZ012-015-019>023-181900-
MARYLAND EASTERN SHORE

CITY           SKY/WX    TMP DP  RH WIND       PRES   REMARKS
OCEAN CITY     CLOUDY    74  70  87 NE14      30.02F
SALISBURY      CLOUDY    75  70  84 NE14G23   30.02F
CAMBRIDGE*     PTSUNNY   77  70  78 N8        30.03F
EASTON*        PTSUNNY   77  70  78 NE10      30.08F

$$

MDZ017>025-181900-
SOUTHERN MARYLAND

CITY           SKY/WX    TMP DP  RH WIND       PRES   REMARKS
PATUXENT RIVER PTSUNNY   78  70  76 N14       30.03F
ST INIGOES     MOSUNNY   79  69  71 N9        30.02F
LEONARDTOWN*   PTSUNNY   73  68  83 NE5       30.06F

$$

MDZ003>005-181900-
NORTH CENTRAL MARYLAND

CITY           SKY/WX    TMP DP  RH WIND       PRES   REMARKS
FREDERICK*     PTSUNNY   81  57  44 NE9       30.10F
HAGERSTOWN APT PTSUNNY   79  66  64 E5        30.08F
WESTMINSTER*   CLOUDY    72  64  78 E6        30.11S

$$

MDZ501>502-181900-
WESTERN MARYLAND

CITY           SKY/WX    TMP DP  RH WIND       PRES   REMARKS
OAKLAND*       SUNNY     72  59  64 S5        30.15F
CUMBERLAND*    SUNNY     81  64  57 SW5       30.12F

$$

VAZ025>031-181900-
SHENANDOAH VALLEY

CITY           SKY/WX    TMP DP  RH WIND       PRES   REMARKS
WINCHESTER*    MOSUNNY   77  64  65 NE3       30.08F
FRONT ROYAL*   CLOUDY    75  68  78 NW7       30.07F
LURAY*         PTSUNNY   79  64  61 NE5       30.07F
NEW MARKET*    PTSUNNY   80  62  54 N7        30.07F
STAUNTON*      PTSUNNY   75  63  65 N5        30.10F
WAYNESBORO*    PTSUNNY   75  66  73 SE3       30.10F

$$

WVZ021-048>050-054>055-181900-
EASTERN WEST VIRGINIA PANHANDLE

CITY           SKY/WX    TMP DP  RH WIND       PRES   REMARKS
MARTINSBURG    PTSUNNY   78  64  61 N5        30.07F
PETERSBURG*    MOSUNNY   81  65  56 CALM      30.09F

$$

VAZ036>039-050-181900-
CENTRAL FOOTHILLS

CITY           SKY/WX    TMP DP  RH WIND       PRES   REMARKS
CHARLOTTESVILL PTSUNNY   79  65  62 E8        30.06F
CULPEPER*      PTSUNNY   81  67  62 N6        30.06F
ORANGE*        PTSUNNY   77  64  65 NE3       30.05F
GORDONSVILLE*  CLOUDY    79  69  71 N5        30.05F
WARRENTON*     MOSUNNY   82  63  52 NE8       30.06F

$$

VAZ055>057-181900-
NORTH AND CENTRAL PIEDMONT

CITY           SKY/WX    TMP DP  RH WIND       PRES   REMARKS
FREDERICKSBRG* CLOUDY    78  67  69 NE7       30.04F
STAFFORD*      MOSUNNY   79  66  64 N8        30.09F

$$

NCZ024-NYZ072-PAZ021-071-VAZ022-071-181900-
OTHER REGIONAL OBSERVATIONS

CITY           SKY/WX    TMP DP  RH WIND       PRES   REMARKS
NEW YORK CITY  CLOUDY    71  65  81 NE12      30.13F
PHILADELPHIA   MOSUNNY   80  68  66 NE12      30.07F
PITTSBURGH     PTSUNNY   81  63  54 NE3       30.09F
ROANOKE        PTSUNNY   79  64  60 VRB5      30.09F
RICHMOND       LGT RAIN  74  70  87 N9        30.04S
RALEIGH        MOSUNNY   81  65  58 N9        30.03F

$$

ANZ530>537-181900-
MARINE OBSERVATIONS

STATION/POSITION TIME  TEMP    WIND        PRES
                       AIR SEA DIR/SP/G
                 (UTC) (F)     (DEG/KT/KT) (MB)
THOMAS PT LIGHT  1800   71 75   10/ 13/ 14   N/A
BALT KEY BRIDGE  1748   70      40/  2/  3 1018.5F
COVE POINT       1742   72      20/ 13/ 17 1018.0F
LEWISETTA        1748   77 76   30/  7/ 11 1016.6F
SOLOMONS ISLAND  1748   74 76  360/ 10/ 17 1016.7F
PINEY POINT      1748           30/  9/ 11   N/A

$$





USA.gov is the U.S. government's official web portal to all federal, state and local government web resources and services.